{"data":{"norad_id":63834,"epoch":"2026-09-21T22:45:06.686784Z","epoch_age_seconds":76582,"freshness":"FRESH","line1":"1 63834U 25052BQ  26264.94799406  .00004313  00000+0  15038-3 0  9996","line2":"2 63834  97.3829 158.7987 0004761 141.9357 218.2220 15.30162323 84743","mean_motion":15.30162323,"eccentricity":0.0004761,"inclination_deg":97.3829,"raan_deg":158.7987,"arg_perigee_deg":141.9357,"mean_anomaly_deg":218.222,"bstar":0.00015038,"rev_number":8474,"period_min":94.107662850878,"perigee_km":472.06463397728,"apogee_km":478.59050293936,"semimajor_km":6853.4645684583,"source":"CELESTRAK","updated_at":"2026-09-22T09:00:29.366622Z"}}